Data supplied by UK-AIR on 27/11/2015
All Data GMT hour ending 
Status: R =Ratified P=Provisional,P*=As supplied
,,Glazebury,,,,,,,,,,,,,,,,,,,,,,,
Date,time,"Nitric oxide",status,unit,"Nitrogen dioxide",status,unit,"Nitrogen oxides as nitrogen dioxide",status,unit,"Ozone",status,unit
 
01-01-2012,01:00,1.60000,R,ugm-3,14.30000,R,ugm-3,16.80000,R,ugm-3,48.00000,R,ugm-3
01-01-2012,02:00,0.70000,R,ugm-3,8.20000,R,ugm-3,9.40000,R,ugm-3,54.00000,R,ugm-3
01-01-2012,03:00,0.60000,R,ugm-3,10.70000,R,ugm-3,11.70000,R,ugm-3,56.00000,R,ugm-3
01-01-2012,04:00,0.60000,R,ugm-3,10.70000,R,ugm-3,11.70000,R,ugm-3,58.00000,R,ugm-3
01-01-2012,05:00,1.70000,R,ugm-3,24.10000,R,ugm-3,26.80000,R,ugm-3,44.00000,R,ugm-3
01-01-2012,06:00,2.40000,R,ugm-3,33.10000,R,ugm-3,36.70000,R,ugm-3,40.00000,R,ugm-3
01-01-2012,07:00,0.60000,R,ugm-3,7.10000,R,ugm-3,8.00000,R,ugm-3,58.00000,R,ugm-3
01-01-2012,08:00,0.60000,R,ugm-3,22.40000,R,ugm-3,23.30000,R,ugm-3,42.00000,R,ugm-3
01-01-2012,09:00,0.60000,R,ugm-3,2.70000,R,ugm-3,3.60000,R,ugm-3,50.00000,R,ugm-3
01-01-2012,10:00,0.00000,R,ugm-3,3.60000,R,ugm-3,3.60000,R,ugm-3,58.00000,R,ugm-3
01-01-2012,11:00,1.70000,R,ugm-3,1.00000,R,ugm-3,3.60000,R,ugm-3,58.00000,R,ugm-3
01-01-2012,12:00,1.20000,R,ugm-3,1.90000,R,ugm-3,3.80000,R,ugm-3,62.00000,R,ugm-3
01-01-2012,13:00,2.40000,R,ugm-3,2.70000,R,ugm-3,6.30000,R,ugm-3,64.00000,R,ugm-3
01-01-2012,14:00,2.40000,R,ugm-3,13.40000,R,ugm-3,17.00000,R,ugm-3,54.00000,R,ugm-3
01-01-2012,15:00,1.70000,R,ugm-3,16.10000,R,ugm-3,18.70000,R,ugm-3,52.00000,R,ugm-3
01-01-2012,16:00,1.70000,R,ugm-3,17.80000,R,ugm-3,20.50000,R,ugm-3,48.00000,R,ugm-3
01-01-2012,17:00,1.20000,R,ugm-3,17.00000,R,ugm-3,18.90000,R,ugm-3,48.00000,R,ugm-3
01-01-2012,18:00,2.40000,R,ugm-3,11.70000,R,ugm-3,15.30000,R,ugm-3,42.00000,R,ugm-3
01-01-2012,19:00,1.20000,R,ugm-3,16.80000,R,ugm-3,18.70000,R,ugm-3,34.00000,R,ugm-3
01-01-2012,20:00,1.70000,R,ugm-3,25.10000,R,ugm-3,27.70000,R,ugm-3,24.00000,R,ugm-3
01-01-2012,21:00,1.20000,R,ugm-3,18.70000,R,ugm-3,20.70000,R,ugm-3,34.00000,R,ugm-3
01-01-2012,22:00,0.60000,R,ugm-3,7.10000,R,ugm-3,8.00000,R,ugm-3,60.00000,R,ugm-3
01-01-2012,23:00,1.70000,R,ugm-3,14.20000,R,ugm-3,16.80000,R,ugm-3,48.00000,R,ugm-3
01-01-2012,24:00,1.20000,R,ugm-3,12.40000,R,ugm-3,14.30000,R,ugm-3,48.00000,R,ugm-3
02-01-2012,01:00,1.60000,R,ugm-3,11.90000,R,ugm-3,14.30000,R,ugm-3,48.00000,R,ugm-3
02-01-2012,02:00,1.60000,R,ugm-3,33.30000,R,ugm-3,35.80000,R,ugm-3,28.00000,R,ugm-3
02-01-2012,03:00,1.20000,R,ugm-3,17.80000,R,ugm-3,19.70000,R,ugm-3,44.00000,R,ugm-3
02-01-2012,04:00,1.20000,R,ugm-3,3.60000,R,ugm-3,5.50000,R,ugm-3,48.00000,R,ugm-3
02-01-2012,05:00,2.40000,R,ugm-3,1.70000,R,ugm-3,5.40000,R,ugm-3,50.00000,R,ugm-3
02-01-2012,06:00,0.60000,R,ugm-3,2.70000,R,ugm-3,3.60000,R,ugm-3,64.00000,R,ugm-3
02-01-2012,07:00,0.60000,R,ugm-3,6.30000,R,ugm-3,7.30000,R,ugm-3,60.00000,R,ugm-3
02-01-2012,08:00,1.70000,R,ugm-3,6.10000,R,ugm-3,8.80000,R,ugm-3,54.00000,R,ugm-3
02-01-2012,09:00,2.40000,R,ugm-3,14.20000,R,ugm-3,17.80000,R,ugm-3,38.00000,R,ugm-3
02-01-2012,10:00,3.00000,R,ugm-3,18.70000,R,ugm-3,23.30000,R,ugm-3,44.00000,R,ugm-3
02-01-2012,11:00,5.20000,R,ugm-3,24.10000,R,ugm-3,32.10000,R,ugm-3,46.00000,R,ugm-3
02-01-2012,12:00,3.00000,R,ugm-3,11.70000,R,ugm-3,16.30000,R,ugm-3,62.00000,R,ugm-3
02-01-2012,13:00,2.40000,R,ugm-3,3.40000,R,ugm-3,7.10000,R,ugm-3,68.00000,R,ugm-3
02-01-2012,14:00,2.40000,R,ugm-3,2.70000,R,ugm-3,6.30000,R,ugm-3,68.00000,R,ugm-3
02-01-2012,15:00,2.40000,R,ugm-3,12.40000,R,ugm-3,16.10000,R,ugm-3,62.00000,R,ugm-3
02-01-2012,16:00,2.40000,R,ugm-3,7.10000,R,ugm-3,10.70000,R,ugm-3,64.00000,R,ugm-3
02-01-2012,17:00,2.40000,R,ugm-3,28.50000,R,ugm-3,32.10000,R,ugm-3,36.00000,R,ugm-3
02-01-2012,18:00,1.70000,R,ugm-3,39.40000,R,ugm-3,42.10000,R,ugm-3,38.00000,R,ugm-3
02-01-2012,19:00,1.70000,R,ugm-3,16.10000,R,ugm-3,18.70000,R,ugm-3,48.00000,R,ugm-3
02-01-2012,20:00,1.70000,R,ugm-3,28.50000,R,ugm-3,31.20000,R,ugm-3,42.00000,R,ugm-3
02-01-2012,21:00,1.20000,R,ugm-3,13.40000,R,ugm-3,15.30000,R,ugm-3,52.00000,R,ugm-3
02-01-2012,22:00,1.20000,R,ugm-3,5.40000,R,ugm-3,7.30000,R,ugm-3,56.00000,R,ugm-3
02-01-2012,23:00,1.70000,R,ugm-3,4.40000,R,ugm-3,7.10000,R,ugm-3,56.00000,R,ugm-3
02-01-2012,24:00,0.00000,R,ugm-3,5.40000,R,ugm-3,5.40000,R,ugm-3,58.00000,R,ugm-3
03-01-2012,01:00,2.40000,R,ugm-3,3.40000,R,ugm-3,7.10000,R,ugm-3,58.00000,R,ugm-3
03-01-2012,02:00,1.60000,R,ugm-3,4.60000,R,ugm-3,7.10000,R,ugm-3,60.00000,R,ugm-3
03-01-2012,03:00,0.60000,R,ugm-3,6.10000,R,ugm-3,7.10000,R,ugm-3,64.00000,R,ugm-3
03-01-2012,04:00,1.20000,R,ugm-3,4.40000,R,ugm-3,6.30000,R,ugm-3,66.00000,R,ugm-3
03-01-2012,05:00,1.20000,R,ugm-3,2.70000,R,ugm-3,4.60000,R,ugm-3,66.00000,R,ugm-3
03-01-2012,06:00,2.40000,R,ugm-3,3.40000,R,ugm-3,7.10000,R,ugm-3,64.00000,R,ugm-3
03-01-2012,07:00,1.60000,R,ugm-3,11.90000,R,ugm-3,14.30000,R,ugm-3,64.00000,R,ugm-3
03-01-2012,08:00,1.70000,R,ugm-3,21.40000,R,ugm-3,24.10000,R,ugm-3,56.00000,R,ugm-3
03-01-2012,09:00,0.00000,R,ugm-3,9.80000,R,ugm-3,9.80000,R,ugm-3,72.00000,R,ugm-3
03-01-2012,10:00,1.20000,R,ugm-3,9.00000,R,ugm-3,10.90000,R,ugm-3,70.00000,R,ugm-3
03-01-2012,11:00,1.20000,R,ugm-3,9.80000,R,ugm-3,11.70000,R,ugm-3,72.00000,R,ugm-3
03-01-2012,12:00,1.70000,R,ugm-3,9.00000,R,ugm-3,11.70000,R,ugm-3,70.00000,R,ugm-3
03-01-2012,13:00,2.40000,R,ugm-3,9.00000,R,ugm-3,12.60000,R,ugm-3,70.00000,R,ugm-3
03-01-2012,14:00,1.70000,R,ugm-3,9.00000,R,ugm-3,11.70000,R,ugm-3,68.00000,R,ugm-3
03-01-2012,15:00,2.40000,R,ugm-3,6.10000,R,ugm-3,9.80000,R,ugm-3,72.00000,R,ugm-3
03-01-2012,16:00,,,,,,,,,,68.00000,R,ugm-3
03-01-2012,17:00,2.40000,R,ugm-3,8.00000,R,ugm-3,11.70000,R,ugm-3,70.00000,R,ugm-3
03-01-2012,18:00,0.00000,R,ugm-3,11.70000,R,ugm-3,11.70000,R,ugm-3,70.00000,R,ugm-3
03-01-2012,19:00,0.60000,R,ugm-3,9.80000,R,ugm-3,10.70000,R,ugm-3,70.00000,R,ugm-3
03-01-2012,20:00,0.00000,R,ugm-3,9.00000,R,ugm-3,9.00000,R,ugm-3,70.00000,R,ugm-3
03-01-2012,21:00,1.20000,R,ugm-3,6.10000,R,ugm-3,8.00000,R,ugm-3,70.00000,R,ugm-3
03-01-2012,22:00,0.60000,R,ugm-3,6.10000,R,ugm-3,7.10000,R,ugm-3,70.00000,R,ugm-3
03-01-2012,23:00,0.00000,R,ugm-3,5.40000,R,ugm-3,5.40000,R,ugm-3,72.00000,R,ugm-3
03-01-2012,24:00,0.60000,R,ugm-3,3.60000,R,ugm-3,4.60000,R,ugm-3,76.00000,R,ugm-3
04-01-2012,01:00,0.00000,R,ugm-3,3.60000,R,ugm-3,3.60000,R,ugm-3,74.00000,R,ugm-3
04-01-2012,02:00,1.60000,R,ugm-3,2.30000,R,ugm-3,4.80000,R,ugm-3,74.00000,R,ugm-3
04-01-2012,03:00,0.60000,R,ugm-3,6.10000,R,ugm-3,7.10000,R,ugm-3,74.00000,R,ugm-3
04-01-2012,04:00,0.60000,R,ugm-3,5.40000,R,ugm-3,6.30000,R,ugm-3,76.00000,R,ugm-3
04-01-2012,05:00,0.00000,R,ugm-3,8.00000,R,ugm-3,8.00000,R,ugm-3,72.00000,R,ugm-3
04-01-2012,06:00,0.00000,R,ugm-3,7.10000,R,ugm-3,7.10000,R,ugm-3,68.00000,R,ugm-3
04-01-2012,07:00,0.60000,R,ugm-3,9.80000,R,ugm-3,10.70000,R,ugm-3,62.00000,R,ugm-3
04-01-2012,08:00,1.20000,R,ugm-3,12.60000,R,ugm-3,14.50000,R,ugm-3,54.00000,R,ugm-3
04-01-2012,09:00,1.20000,R,ugm-3,17.00000,R,ugm-3,18.90000,R,ugm-3,54.00000,R,ugm-3
04-01-2012,10:00,1.20000,R,ugm-3,13.40000,R,ugm-3,15.30000,R,ugm-3,64.00000,R,ugm-3
04-01-2012,11:00,2.40000,R,ugm-3,10.70000,R,ugm-3,14.30000,R,ugm-3,64.00000,R,ugm-3
04-01-2012,12:00,2.40000,R,ugm-3,9.80000,R,ugm-3,13.40000,R,ugm-3,62.00000,R,ugm-3
04-01-2012,13:00,2.40000,R,ugm-3,16.10000,R,ugm-3,19.70000,R,ugm-3,56.00000,R,ugm-3
04-01-2012,14:00,2.40000,R,ugm-3,11.70000,R,ugm-3,15.30000,R,ugm-3,62.00000,R,ugm-3
04-01-2012,15:00,1.20000,R,ugm-3,13.40000,R,ugm-3,15.30000,R,ugm-3,60.00000,R,ugm-3
04-01-2012,16:00,1.70000,R,ugm-3,12.60000,R,ugm-3,15.30000,R,ugm-3,60.00000,R,ugm-3
04-01-2012,17:00,0.00000,R,ugm-3,15.30000,R,ugm-3,15.30000,R,ugm-3,60.00000,R,ugm-3
04-01-2012,18:00,0.60000,R,ugm-3,14.30000,R,ugm-3,15.30000,R,ugm-3,60.00000,R,ugm-3
04-01-2012,19:00,1.70000,R,ugm-3,14.30000,R,ugm-3,17.00000,R,ugm-3,60.00000,R,ugm-3
04-01-2012,20:00,1.20000,R,ugm-3,9.00000,R,ugm-3,10.90000,R,ugm-3,68.00000,R,ugm-3
04-01-2012,21:00,1.20000,R,ugm-3,5.40000,R,ugm-3,7.30000,R,ugm-3,70.00000,R,ugm-3
04-01-2012,22:00,0.60000,R,ugm-3,6.10000,R,ugm-3,7.10000,R,ugm-3,74.00000,R,ugm-3
04-01-2012,23:00,1.20000,R,ugm-3,3.60000,R,ugm-3,5.50000,R,ugm-3,74.00000,R,ugm-3
04-01-2012,24:00,0.60000,R,ugm-3,6.30000,R,ugm-3,7.30000,R,ugm-3,72.00000,R,ugm-3
05-01-2012,01:00,0.00000,R,ugm-3,8.40000,R,ugm-3,8.40000,R,ugm-3,72.00000,R,ugm-3
05-01-2012,02:00,0.00000,R,ugm-3,7.30000,R,ugm-3,7.30000,R,ugm-3,74.00000,R,ugm-3
05-01-2012,03:00,0.60000,R,ugm-3,6.30000,R,ugm-3,7.30000,R,ugm-3,74.00000,R,ugm-3
05-01-2012,04:00,0.60000,R,ugm-3,4.60000,R,ugm-3,5.50000,R,ugm-3,78.00000,R,ugm-3
05-01-2012,05:00,0.60000,R,ugm-3,3.60000,R,ugm-3,4.60000,R,ugm-3,78.00000,R,ugm-3
05-01-2012,06:00,0.00000,R,ugm-3,3.60000,R,ugm-3,3.60000,R,ugm-3,68.00000,R,ugm-3
05-01-2012,07:00,0.00000,R,ugm-3,5.50000,R,ugm-3,5.50000,R,ugm-3,60.00000,R,ugm-3
05-01-2012,08:00,1.70000,R,ugm-3,4.60000,R,ugm-3,7.30000,R,ugm-3,56.00000,R,ugm-3
05-01-2012,09:00,0.60000,R,ugm-3,7.30000,R,ugm-3,8.20000,R,ugm-3,58.00000,R,ugm-3
05-01-2012,10:00,1.20000,R,ugm-3,5.50000,R,ugm-3,7.50000,R,ugm-3,62.00000,R,ugm-3
05-01-2012,11:00,1.20000,R,ugm-3,5.50000,R,ugm-3,7.50000,R,ugm-3,68.00000,R,ugm-3
05-01-2012,12:00,1.20000,R,ugm-3,6.30000,R,ugm-3,8.20000,R,ugm-3,68.00000,R,ugm-3
05-01-2012,13:00,1.20000,R,ugm-3,5.50000,R,ugm-3,7.50000,R,ugm-3,68.00000,R,ugm-3
05-01-2012,14:00,2.40000,R,ugm-3,3.60000,R,ugm-3,7.30000,R,ugm-3,66.00000,R,ugm-3
05-01-2012,15:00,2.40000,R,ugm-3,3.60000,R,ugm-3,7.30000,R,ugm-3,66.00000,R,ugm-3
05-01-2012,16:00,1.20000,R,ugm-3,5.50000,R,ugm-3,7.50000,R,ugm-3,66.00000,R,ugm-3
05-01-2012,17:00,1.20000,R,ugm-3,8.00000,R,ugm-3,9.90000,R,ugm-3,64.00000,R,ugm-3
05-01-2012,18:00,1.70000,R,ugm-3,8.00000,R,ugm-3,10.70000,R,ugm-3,62.00000,R,ugm-3
05-01-2012,19:00,0.60000,R,ugm-3,7.30000,R,ugm-3,8.20000,R,ugm-3,64.00000,R,ugm-3
05-01-2012,20:00,0.60000,R,ugm-3,7.30000,R,ugm-3,8.20000,R,ugm-3,64.00000,R,ugm-3
05-01-2012,21:00,1.70000,R,ugm-3,4.60000,R,ugm-3,7.30000,R,ugm-3,66.00000,R,ugm-3
05-01-2012,22:00,0.60000,R,ugm-3,6.30000,R,ugm-3,7.30000,R,ugm-3,66.00000,R,ugm-3
05-01-2012,23:00,1.70000,R,ugm-3,4.60000,R,ugm-3,7.30000,R,ugm-3,64.00000,R,ugm-3
05-01-2012,24:00,0.00000,R,ugm-3,7.30000,R,ugm-3,7.30000,R,ugm-3,64.00000,R,ugm-3
06-01-2012,01:00,0.00000,R,ugm-3,3.60000,R,ugm-3,3.60000,R,ugm-3,62.00000,R,ugm-3
06-01-2012,02:00,0.70000,R,ugm-3,2.50000,R,ugm-3,3.60000,R,ugm-3,62.00000,R,ugm-3
06-01-2012,03:00,1.20000,R,ugm-3,1.90000,R,ugm-3,3.80000,R,ugm-3,62.00000,R,ugm-3
06-01-2012,04:00,0.60000,R,ugm-3,2.70000,R,ugm-3,3.60000,R,ugm-3,64.00000,R,ugm-3
06-01-2012,05:00,2.40000,R,ugm-3,1.70000,R,ugm-3,5.40000,R,ugm-3,58.00000,R,ugm-3
06-01-2012,06:00,1.20000,R,ugm-3,4.60000,R,ugm-3,6.50000,R,ugm-3,54.00000,R,ugm-3
06-01-2012,07:00,3.00000,R,ugm-3,18.00000,R,ugm-3,22.60000,R,ugm-3,22.00000,R,ugm-3
06-01-2012,08:00,38.00000,R,ugm-3,60.60000,R,ugm-3,119.00000,R,ugm-3,0.00000,R,ugm-3
06-01-2012,09:00,52.00000,R,ugm-3,65.20000,R,ugm-3,145.00000,R,ugm-3,0.00000,R,ugm-3
06-01-2012,10:00,41.50000,R,ugm-3,54.30000,R,ugm-3,118.00000,R,ugm-3,2.00000,R,ugm-3
06-01-2012,11:00,63.10000,R,ugm-3,58.90000,R,ugm-3,155.70000,R,ugm-3,4.00000,R,ugm-3
06-01-2012,12:00,36.20000,R,ugm-3,52.60000,R,ugm-3,108.10000,R,ugm-3,12.00000,R,ugm-3
06-01-2012,13:00,6.40000,R,ugm-3,29.80000,R,ugm-3,39.60000,R,ugm-3,26.00000,R,ugm-3
06-01-2012,14:00,9.40000,R,ugm-3,36.10000,R,ugm-3,50.50000,R,ugm-3,22.00000,R,ugm-3
06-01-2012,15:00,5.90000,R,ugm-3,32.50000,R,ugm-3,41.50000,R,ugm-3,30.00000,R,ugm-3
06-01-2012,16:00,3.00000,R,ugm-3,34.20000,R,ugm-3,38.80000,R,ugm-3,24.00000,R,ugm-3
06-01-2012,17:00,2.40000,R,ugm-3,44.00000,R,ugm-3,47.60000,R,ugm-3,12.00000,R,ugm-3
06-01-2012,18:00,3.00000,R,ugm-3,53.20000,R,ugm-3,57.80000,R,ugm-3,12.00000,R,ugm-3
06-01-2012,19:00,1.20000,R,ugm-3,20.70000,R,ugm-3,22.60000,R,ugm-3,38.00000,R,ugm-3
06-01-2012,20:00,0.60000,R,ugm-3,20.70000,R,ugm-3,21.60000,R,ugm-3,38.00000,R,ugm-3
06-01-2012,21:00,1.70000,R,ugm-3,29.60000,R,ugm-3,32.30000,R,ugm-3,30.00000,R,ugm-3
06-01-2012,22:00,1.20000,R,ugm-3,14.30000,R,ugm-3,16.30000,R,ugm-3,46.00000,R,ugm-3
06-01-2012,23:00,0.00000,R,ugm-3,7.30000,R,ugm-3,7.30000,R,ugm-3,56.00000,R,ugm-3
06-01-2012,24:00,0.60000,R,ugm-3,4.60000,R,ugm-3,5.50000,R,ugm-3,58.00000,R,ugm-3
07-01-2012,01:00,1.60000,R,ugm-3,7.30000,R,ugm-3,9.80000,R,ugm-3,60.00000,R,ugm-3
07-01-2012,02:00,0.70000,R,ugm-3,8.40000,R,ugm-3,9.60000,R,ugm-3,62.00000,R,ugm-3
07-01-2012,03:00,0.00000,R,ugm-3,7.30000,R,ugm-3,7.30000,R,ugm-3,70.00000,R,ugm-3
07-01-2012,04:00,0.60000,R,ugm-3,2.70000,R,ugm-3,3.60000,R,ugm-3,76.00000,R,ugm-3
07-01-2012,05:00,0.00000,R,ugm-3,3.60000,R,ugm-3,3.60000,R,ugm-3,74.00000,R,ugm-3
07-01-2012,06:00,0.00000,R,ugm-3,7.30000,R,ugm-3,7.30000,R,ugm-3,70.00000,R,ugm-3
07-01-2012,07:00,0.70000,R,ugm-3,4.80000,R,ugm-3,5.90000,R,ugm-3,68.00000,R,ugm-3
07-01-2012,08:00,1.20000,R,ugm-3,5.50000,R,ugm-3,7.50000,R,ugm-3,64.00000,R,ugm-3
07-01-2012,09:00,1.70000,R,ugm-3,3.60000,R,ugm-3,6.30000,R,ugm-3,64.00000,R,ugm-3
07-01-2012,10:00,0.60000,R,ugm-3,6.30000,R,ugm-3,7.30000,R,ugm-3,64.00000,R,ugm-3
07-01-2012,11:00,1.70000,R,ugm-3,3.60000,R,ugm-3,6.30000,R,ugm-3,62.00000,R,ugm-3
07-01-2012,12:00,1.70000,R,ugm-3,4.60000,R,ugm-3,7.30000,R,ugm-3,62.00000,R,ugm-3
07-01-2012,13:00,2.40000,R,ugm-3,3.60000,R,ugm-3,7.30000,R,ugm-3,62.00000,R,ugm-3
07-01-2012,14:00,1.70000,R,ugm-3,4.60000,R,ugm-3,7.30000,R,ugm-3,62.00000,R,ugm-3
07-01-2012,15:00,1.70000,R,ugm-3,5.50000,R,ugm-3,8.20000,R,ugm-3,60.00000,R,ugm-3
07-01-2012,16:00,1.70000,R,ugm-3,6.30000,R,ugm-3,9.00000,R,ugm-3,60.00000,R,ugm-3
07-01-2012,17:00,0.60000,R,ugm-3,12.60000,R,ugm-3,13.60000,R,ugm-3,56.00000,R,ugm-3
07-01-2012,18:00,0.00000,R,ugm-3,10.90000,R,ugm-3,10.90000,R,ugm-3,60.00000,R,ugm-3
07-01-2012,19:00,1.20000,R,ugm-3,8.20000,R,ugm-3,10.10000,R,ugm-3,62.00000,R,ugm-3
07-01-2012,20:00,1.70000,R,ugm-3,6.30000,R,ugm-3,9.00000,R,ugm-3,64.00000,R,ugm-3
07-01-2012,21:00,1.70000,R,ugm-3,6.30000,R,ugm-3,9.00000,R,ugm-3,62.00000,R,ugm-3
07-01-2012,22:00,0.60000,R,ugm-3,8.20000,R,ugm-3,9.20000,R,ugm-3,60.00000,R,ugm-3
07-01-2012,23:00,1.20000,R,ugm-3,5.50000,R,ugm-3,7.50000,R,ugm-3,62.00000,R,ugm-3
07-01-2012,24:00,1.20000,R,ugm-3,5.50000,R,ugm-3,7.50000,R,ugm-3,60.00000,R,ugm-3
08-01-2012,01:00,1.60000,R,ugm-3,1.10000,R,ugm-3,3.60000,R,ugm-3,64.00000,R,ugm-3
08-01-2012,02:00,1.60000,R,ugm-3,1.10000,R,ugm-3,3.60000,R,ugm-3,62.00000,R,ugm-3
08-01-2012,03:00,0.60000,R,ugm-3,1.90000,R,ugm-3,2.90000,R,ugm-3,66.00000,R,ugm-3
08-01-2012,04:00,1.20000,R,ugm-3,1.90000,R,ugm-3,3.80000,R,ugm-3,62.00000,R,ugm-3
08-01-2012,05:00,2.40000,R,ugm-3,0.00000,R,ugm-3,3.60000,R,ugm-3,60.00000,R,ugm-3
08-01-2012,06:00,0.60000,R,ugm-3,2.70000,R,ugm-3,3.60000,R,ugm-3,60.00000,R,ugm-3
08-01-2012,07:00,1.70000,R,ugm-3,1.00000,R,ugm-3,3.60000,R,ugm-3,62.00000,R,ugm-3
08-01-2012,08:00,1.20000,R,ugm-3,2.70000,R,ugm-3,4.60000,R,ugm-3,58.00000,R,ugm-3
08-01-2012,09:00,0.60000,R,ugm-3,4.60000,R,ugm-3,5.50000,R,ugm-3,56.00000,R,ugm-3
08-01-2012,10:00,2.40000,R,ugm-3,2.70000,R,ugm-3,6.30000,R,ugm-3,54.00000,R,ugm-3
08-01-2012,11:00,2.40000,R,ugm-3,3.60000,R,ugm-3,7.30000,R,ugm-3,58.00000,R,ugm-3
08-01-2012,12:00,2.40000,R,ugm-3,7.30000,R,ugm-3,10.90000,R,ugm-3,50.00000,R,ugm-3
08-01-2012,13:00,2.40000,R,ugm-3,18.00000,R,ugm-3,21.60000,R,ugm-3,36.00000,R,ugm-3
08-01-2012,14:00,2.40000,R,ugm-3,27.20000,R,ugm-3,30.80000,R,ugm-3,30.00000,R,ugm-3
08-01-2012,15:00,2.40000,R,ugm-3,11.90000,R,ugm-3,15.50000,R,ugm-3,42.00000,R,ugm-3
08-01-2012,16:00,1.70000,R,ugm-3,7.30000,R,ugm-3,9.90000,R,ugm-3,46.00000,R,ugm-3
08-01-2012,17:00,1.20000,R,ugm-3,8.20000,R,ugm-3,10.10000,R,ugm-3,46.00000,R,ugm-3
08-01-2012,18:00,1.20000,R,ugm-3,7.30000,R,ugm-3,9.20000,R,ugm-3,48.00000,R,ugm-3
08-01-2012,19:00,1.70000,R,ugm-3,12.80000,R,ugm-3,15.50000,R,ugm-3,38.00000,R,ugm-3
08-01-2012,20:00,0.00000,R,ugm-3,20.80000,R,ugm-3,20.80000,R,ugm-3,36.00000,R,ugm-3
08-01-2012,21:00,1.70000,R,ugm-3,15.50000,R,ugm-3,18.20000,R,ugm-3,40.00000,R,ugm-3
08-01-2012,22:00,0.60000,R,ugm-3,18.90000,R,ugm-3,19.90000,R,ugm-3,32.00000,R,ugm-3
08-01-2012,23:00,0.60000,R,ugm-3,15.50000,R,ugm-3,16.40000,R,ugm-3,40.00000,R,ugm-3
08-01-2012,24:00,0.00000,R,ugm-3,12.80000,R,ugm-3,12.80000,R,ugm-3,52.00000,R,ugm-3
09-01-2012,01:00,0.70000,R,ugm-3,6.10000,R,ugm-3,7.30000,R,ugm-3,54.00000,R,ugm-3
09-01-2012,02:00,1.60000,R,ugm-3,4.80000,R,ugm-3,7.30000,R,ugm-3,60.00000,R,ugm-3
09-01-2012,03:00,0.60000,R,ugm-3,3.60000,R,ugm-3,4.60000,R,ugm-3,60.00000,R,ugm-3
09-01-2012,04:00,1.20000,R,ugm-3,14.50000,R,ugm-3,16.40000,R,ugm-3,48.00000,R,ugm-3
09-01-2012,05:00,1.20000,R,ugm-3,4.60000,R,ugm-3,6.50000,R,ugm-3,52.00000,R,ugm-3
09-01-2012,06:00,1.20000,R,ugm-3,10.90000,R,ugm-3,12.80000,R,ugm-3,48.00000,R,ugm-3
09-01-2012,07:00,1.20000,R,ugm-3,16.40000,R,ugm-3,18.40000,R,ugm-3,40.00000,R,ugm-3
09-01-2012,08:00,1.70000,R,ugm-3,23.70000,R,ugm-3,26.40000,R,ugm-3,38.00000,R,ugm-3
09-01-2012,09:00,1.70000,R,ugm-3,33.70000,R,ugm-3,36.30000,R,ugm-3,30.00000,R,ugm-3
09-01-2012,10:00,2.40000,R,ugm-3,29.80000,R,ugm-3,33.50000,R,ugm-3,34.00000,R,ugm-3
09-01-2012,11:00,2.40000,R,ugm-3,14.50000,R,ugm-3,18.20000,R,ugm-3,48.00000,R,ugm-3
09-01-2012,12:00,1.70000,R,ugm-3,10.90000,R,ugm-3,13.60000,R,ugm-3,50.00000,R,ugm-3
09-01-2012,13:00,2.40000,R,ugm-3,7.30000,R,ugm-3,10.90000,R,ugm-3,50.00000,R,ugm-3
09-01-2012,14:00,2.40000,R,ugm-3,6.30000,R,ugm-3,9.90000,R,ugm-3,58.00000,R,ugm-3
09-01-2012,15:00,1.20000,R,ugm-3,5.50000,R,ugm-3,7.50000,R,ugm-3,58.00000,R,ugm-3
09-01-2012,16:00,2.40000,R,ugm-3,7.30000,R,ugm-3,10.90000,R,ugm-3,58.00000,R,ugm-3
09-01-2012,17:00,0.00000,R,ugm-3,17.20000,R,ugm-3,17.20000,R,ugm-3,46.00000,R,ugm-3
09-01-2012,18:00,2.40000,R,ugm-3,30.80000,R,ugm-3,34.40000,R,ugm-3,26.00000,R,ugm-3
09-01-2012,19:00,2.40000,R,ugm-3,61.60000,R,ugm-3,65.20000,R,ugm-3,6.00000,R,ugm-3
09-01-2012,20:00,4.70000,R,ugm-3,63.50000,R,ugm-3,70.80000,R,ugm-3,6.00000,R,ugm-3
09-01-2012,21:00,3.60000,R,ugm-3,60.60000,R,ugm-3,66.20000,R,ugm-3,4.00000,R,ugm-3
09-01-2012,22:00,19.50000,R,ugm-3,67.10000,R,ugm-3,97.00000,R,ugm-3,0.00000,R,ugm-3
09-01-2012,23:00,34.70000,R,ugm-3,63.70000,R,ugm-3,116.90000,R,ugm-3,0.00000,R,ugm-3
09-01-2012,24:00,31.20000,R,ugm-3,60.80000,R,ugm-3,108.60000,R,ugm-3,0.00000,R,ugm-3
10-01-2012,01:00,32.30000,R,ugm-3,54.70000,R,ugm-3,104.20000,R,ugm-3,0.00000,R,ugm-3
10-01-2012,02:00,25.90000,R,ugm-3,39.00000,R,ugm-3,78.80000,R,ugm-3,0.00000,R,ugm-3
10-01-2012,03:00,31.30000,R,ugm-3,43.80000,R,ugm-3,91.80000,R,ugm-3,0.00000,R,ugm-3
10-01-2012,04:00,39.00000,R,ugm-3,45.70000,R,ugm-3,105.60000,R,ugm-3,0.00000,R,ugm-3
10-01-2012,05:00,25.30000,R,ugm-3,37.50000,R,ugm-3,76.30000,R,ugm-3,0.00000,R,ugm-3
10-01-2012,06:00,10.70000,R,ugm-3,39.00000,R,ugm-3,55.50000,R,ugm-3,0.00000,R,ugm-3
10-01-2012,07:00,21.30000,R,ugm-3,47.40000,R,ugm-3,80.10000,R,ugm-3,0.00000,R,ugm-3
10-01-2012,08:00,25.90000,R,ugm-3,52.80000,R,ugm-3,92.60000,R,ugm-3,0.00000,R,ugm-3
10-01-2012,09:00,27.80000,R,ugm-3,61.00000,R,ugm-3,103.70000,R,ugm-3,0.00000,R,ugm-3
10-01-2012,10:00,27.20000,R,ugm-3,52.00000,R,ugm-3,93.70000,R,ugm-3,2.00000,R,ugm-3
10-01-2012,11:00,31.90000,R,ugm-3,54.70000,R,ugm-3,103.70000,R,ugm-3,6.00000,R,ugm-3
10-01-2012,12:00,6.00000,R,ugm-3,33.70000,R,ugm-3,42.80000,R,ugm-3,28.00000,R,ugm-3
10-01-2012,13:00,3.60000,R,ugm-3,27.30000,R,ugm-3,32.90000,R,ugm-3,38.00000,R,ugm-3
10-01-2012,14:00,6.00000,R,ugm-3,36.30000,R,ugm-3,45.50000,R,ugm-3,22.00000,R,ugm-3
10-01-2012,15:00,4.70000,R,ugm-3,39.00000,R,ugm-3,46.30000,R,ugm-3,22.00000,R,ugm-3
10-01-2012,16:00,7.70000,R,ugm-3,41.90000,R,ugm-3,53.70000,R,ugm-3,18.00000,R,ugm-3
10-01-2012,17:00,1.70000,R,ugm-3,34.60000,R,ugm-3,37.30000,R,ugm-3,30.00000,R,ugm-3
10-01-2012,18:00,1.70000,R,ugm-3,21.80000,R,ugm-3,24.50000,R,ugm-3,40.00000,R,ugm-3
10-01-2012,19:00,1.70000,R,ugm-3,21.80000,R,ugm-3,24.50000,R,ugm-3,40.00000,R,ugm-3
10-01-2012,20:00,1.70000,R,ugm-3,19.10000,R,ugm-3,21.80000,R,ugm-3,44.00000,R,ugm-3
10-01-2012,21:00,0.60000,R,ugm-3,12.80000,R,ugm-3,13.80000,R,ugm-3,50.00000,R,ugm-3
10-01-2012,22:00,1.70000,R,ugm-3,28.10000,R,ugm-3,30.80000,R,ugm-3,34.00000,R,ugm-3
10-01-2012,23:00,0.60000,R,ugm-3,21.80000,R,ugm-3,22.80000,R,ugm-3,46.00000,R,ugm-3
10-01-2012,24:00,0.00000,R,ugm-3,5.50000,R,ugm-3,5.50000,R,ugm-3,58.00000,R,ugm-3
11-01-2012,01:00,1.60000,R,ugm-3,3.60000,R,ugm-3,6.10000,R,ugm-3,54.00000,R,ugm-3
11-01-2012,02:00,1.60000,R,ugm-3,2.50000,R,ugm-3,5.00000,R,ugm-3,58.00000,R,ugm-3
11-01-2012,03:00,0.60000,R,ugm-3,5.50000,R,ugm-3,6.50000,R,ugm-3,52.00000,R,ugm-3
11-01-2012,04:00,1.20000,R,ugm-3,9.20000,R,ugm-3,11.10000,R,ugm-3,46.00000,R,ugm-3
11-01-2012,05:00,1.20000,R,ugm-3,4.60000,R,ugm-3,6.50000,R,ugm-3,52.00000,R,ugm-3
11-01-2012,06:00,0.00000,R,ugm-3,12.80000,R,ugm-3,12.80000,R,ugm-3,42.00000,R,ugm-3
11-01-2012,07:00,1.70000,R,ugm-3,20.80000,R,ugm-3,23.50000,R,ugm-3,30.00000,R,ugm-3
11-01-2012,08:00,2.40000,R,ugm-3,40.00000,R,ugm-3,43.60000,R,ugm-3,16.00000,R,ugm-3
11-01-2012,09:00,2.40000,R,ugm-3,40.90000,R,ugm-3,44.60000,R,ugm-3,14.00000,R,ugm-3
11-01-2012,10:00,2.40000,R,ugm-3,30.00000,R,ugm-3,33.70000,R,ugm-3,24.00000,R,ugm-3
11-01-2012,11:00,2.40000,R,ugm-3,20.10000,R,ugm-3,23.70000,R,ugm-3,32.00000,R,ugm-3
11-01-2012,12:00,3.00000,R,ugm-3,28.10000,R,ugm-3,32.70000,R,ugm-3,22.00000,R,ugm-3
11-01-2012,13:00,3.60000,R,ugm-3,27.30000,R,ugm-3,32.90000,R,ugm-3,24.00000,R,ugm-3
11-01-2012,14:00,4.70000,R,ugm-3,28.10000,R,ugm-3,35.40000,R,ugm-3,20.00000,R,ugm-3
11-01-2012,15:00,3.60000,R,ugm-3,30.00000,R,ugm-3,35.60000,R,ugm-3,22.00000,R,ugm-3
11-01-2012,16:00,2.40000,R,ugm-3,26.40000,R,ugm-3,30.00000,R,ugm-3,24.00000,R,ugm-3
11-01-2012,17:00,4.70000,R,ugm-3,38.30000,R,ugm-3,45.50000,R,ugm-3,10.00000,R,ugm-3
11-01-2012,18:00,11.80000,R,ugm-3,55.70000,R,ugm-3,73.80000,R,ugm-3,2.00000,R,ugm-3
11-01-2012,19:00,10.10000,R,ugm-3,46.50000,R,ugm-3,62.00000,R,ugm-3,12.00000,R,ugm-3
11-01-2012,20:00,0.60000,R,ugm-3,38.30000,R,ugm-3,39.20000,R,ugm-3,22.00000,R,ugm-3
11-01-2012,21:00,1.70000,R,ugm-3,31.00000,R,ugm-3,33.70000,R,ugm-3,34.00000,R,ugm-3
11-01-2012,22:00,1.70000,R,ugm-3,18.20000,R,ugm-3,20.80000,R,ugm-3,42.00000,R,ugm-3
11-01-2012,23:00,1.20000,R,ugm-3,9.20000,R,ugm-3,11.10000,R,ugm-3,44.00000,R,ugm-3
11-01-2012,24:00,1.20000,R,ugm-3,9.20000,R,ugm-3,11.10000,R,ugm-3,46.00000,R,ugm-3
12-01-2012,01:00,1.60000,R,ugm-3,14.50000,R,ugm-3,17.00000,R,ugm-3,46.00000,R,ugm-3
12-01-2012,02:00,0.70000,R,ugm-3,10.90000,R,ugm-3,12.00000,R,ugm-3,48.00000,R,ugm-3
12-01-2012,03:00,1.20000,R,ugm-3,13.80000,R,ugm-3,15.70000,R,ugm-3,46.00000,R,ugm-3
12-01-2012,04:00,1.20000,R,ugm-3,12.80000,R,ugm-3,14.70000,R,ugm-3,46.00000,R,ugm-3
12-01-2012,05:00,1.20000,R,ugm-3,2.70000,R,ugm-3,4.60000,R,ugm-3,56.00000,R,ugm-3
12-01-2012,06:00,0.00000,R,ugm-3,2.70000,R,ugm-3,2.70000,R,ugm-3,58.00000,R,ugm-3
12-01-2012,07:00,0.00000,R,ugm-3,4.60000,R,ugm-3,4.60000,R,ugm-3,56.00000,R,ugm-3
12-01-2012,08:00,1.20000,R,ugm-3,4.60000,R,ugm-3,6.50000,R,ugm-3,54.00000,R,ugm-3
12-01-2012,09:00,0.60000,R,ugm-3,7.30000,R,ugm-3,8.20000,R,ugm-3,56.00000,R,ugm-3
12-01-2012,10:00,2.40000,R,ugm-3,3.60000,R,ugm-3,7.30000,R,ugm-3,60.00000,R,ugm-3
12-01-2012,11:00,2.40000,R,ugm-3,3.60000,R,ugm-3,7.30000,R,ugm-3,66.00000,R,ugm-3
12-01-2012,12:00,2.40000,R,ugm-3,0.00000,R,ugm-3,3.60000,R,ugm-3,66.00000,R,ugm-3
12-01-2012,13:00,1.70000,R,ugm-3,1.00000,R,ugm-3,3.60000,R,ugm-3,66.00000,R,ugm-3
12-01-2012,14:00,2.40000,R,ugm-3,0.00000,R,ugm-3,3.60000,R,ugm-3,66.00000,R,ugm-3
12-01-2012,15:00,2.40000,R,ugm-3,1.00000,R,ugm-3,4.60000,R,ugm-3,64.00000,R,ugm-3
12-01-2012,16:00,1.20000,R,ugm-3,8.20000,R,ugm-3,10.10000,R,ugm-3,58.00000,R,ugm-3
12-01-2012,17:00,2.40000,R,ugm-3,14.50000,R,ugm-3,18.20000,R,ugm-3,44.00000,R,ugm-3
12-01-2012,18:00,1.20000,R,ugm-3,17.20000,R,ugm-3,19.10000,R,ugm-3,42.00000,R,ugm-3
12-01-2012,19:00,1.70000,R,ugm-3,31.20000,R,ugm-3,33.90000,R,ugm-3,30.00000,R,ugm-3
12-01-2012,20:00,1.70000,R,ugm-3,26.60000,R,ugm-3,29.30000,R,ugm-3,34.00000,R,ugm-3
12-01-2012,21:00,1.70000,R,ugm-3,28.30000,R,ugm-3,31.00000,R,ugm-3,36.00000,R,ugm-3